Location: Karcze
(52.0945°N, 22.4786°E)
Time: 22:03:59
(UTC+00:00)

Transit 4A - Pass Details

Date: 05 August 2021
Orbit: 871 x 974 km, 66.8° (Epoch: 18 September)

Event Time Altitude Azimuth Distance (km) Brightness Sun altitude
Exits shadow 21:38:06 33° 195° (SSW) 1,436 8.4 -20.0°
Maximum altitude 21:40:45 67° 123° (ESE) 944 7.7 -20.1°
Drops below altitude 10° 21:46:32 10° 42° (NE) 2,529 10.6 -20.4°
Sets 21:49:02 0° 40° (NE) 3,472 11.4 -20.4°
